STARLINK-36112 (66944 NORAD) Tracking and Keplerian Element Data

This shows tracking and keplerian element data for the satellite.

Feedback or suggestion? Click here.




ElementValue
Catalog66944
NameSTARLINK-36112
Epoch Orbit319
Epoch Day354.25003472
Epoch Year2025
RAAN12.6478
Inclination53.1556
Eccentricity0.0001051
Argument of Perigee94.9807
Mean Anonmoly175.3208
Mean Motion15.77260565
Decay Rate-0.01502636
L11 66944U 25286V 25354.25003472 -.01502636 00000+0 -10185-1 0 9994
L22 66944 53.1556 12.6478 0001051 94.9807 175.3208 15.77260565 3191



Live tracking and technical data element details for STARLINK-36112 (NORAD 66944). STARLINK-36112 can be tracked NOW for your location showing map with azimuth and elevation plus other details from your city location.







IsCatalogInMostPopularTable: catalog: 66944, numindb: 18
Update: records affected: 1



GetName: 66944 STARLINK-36112

Hit Count: updated at: Mon, 20 Apr 2026 09:28:19 GMT